Zurück zum Katalog

LUCH (OLYMP) DEB

AktivMEO
NORAD 67745·DEBRIS·🇷🇺 Russia

Gestartet Sep 27, 2014 von Baikonur Cosmodrome

Loading…

Nächste Überflüge (nächste 24 Stunden)

TLE

AktuellSource: Space-Track

Epoche: Sep 10, 2026, 08:16 UTC

1 67745U 14058D   26253.34510707 -.00000281  00000-0  00000-0 0  9994
2 67745   2.7805  88.8120 1731528  59.0099 317.4656  0.98106339  2181

Verfolge LUCH (OLYMP) DEB in Echtzeit mit AllMySat

Download on the App Store